Kosmos-2404

operational
NORAD ID: 28114 Int'l Des: 2003-056 Owner: KVR/IACG Country: RU Constellation: GLONASS
MEOCIRCULAR

About Kosmos-2404

Description loading...

Live Position

Loading 3D Globe...

Upcoming Passes

Altitude History

Altitude vs Time

uPlot chart will show altitude changes over time

Two-Line Element Set

1 28114U 03056C 26061.62887906 .00000010 00000-0 00000-0 0 9992
2 28114 64.2061 65.9893 0058454 61.7160 121.8589 2.13104706172978
Epoch: Mar 2, 2026 • Age: 26 hours

Current Status

Altitude 19197.7 km
Velocity 3.94 km/s
Sub-Earth Point 0.83°N, 51.76°E
Launch Date Dec 10, 2003
Age 22.2 years
Type other

Technical Details

Classification Payload
Mass 1415.00 kg
Dry Mass 1200.00 kg
Total Mass 1415.00 kg
Length 4.00 m
Diameter 1.50 m
Span 7.80 m
Shape Cyl + Ant + 2 Pan
Manufacturer NPOPMR
Bus Type Uragan
Phase Status In Orbit
Owner/State KVR/IACG/RU

Large Constellations

Loading constellations...